Regional Weather Roundup
Issued by NWS

Home | Current Version | Previous Version | Graphics & Text | Print | Product List | Glossary On
Versions: 1 2 3 4 5 6 7 8 9 10 11 12 13 14 15 16 17 18 19 20 21 22 23 24 25 26 27 28 29 30 31 32 33 34 35 36 37 38 39 40 41 42 43 44 45 46 47 48 49 50
000
ASUS43 KMKX 250510
RWRWI

WISCONSIN REGIONAL WEATHER ROUNDUP
NATIONAL WEATHER SERVICE MILWAUKEE/SULLIVAN WI
1200 AM CDT FRI JUL 25 2014

NOTE: "FAIR" INDICATES FEW OR NO CLOUDS BELOW 12,000 FEET WITH NO
SIGNIFICANT WEATHER AND/OR OBSTRUCTIONS TO VISIBILITY.

WIZ001-002-006>008-014>016-023>028-250600-
NORTHWEST WISCONSIN

CITY           SKY/WX    TMP DP  RH WIND       PRES   REMARKS
SUPERIOR ARPT  MOCLDY    57  56  94 NE3       29.90R
ASHLAND        CLOUDY    62  59  90 CALM      29.93S
HAYWARD        CLOUDY    68  58  70 S7        29.94F
SIREN          PTCLDY    67  58  73 S9        29.92F
RICE LAKE      PTCLDY    65  58  79 SE6       29.98S
LADYSMITH      MOCLDY    65  58  77 SE5       29.98F
EAU CLAIRE     PTCLDY    67  59  75 S6        29.97S
MENOMONIE      MOCLDY    64  60  87 CALM      29.98R
NEW RICHMOND   CLEAR     65  59  82 S7        29.95F
OSCEOLA        PTCLDY    66  61  84 S6        29.96F
$$

WIZ003>005-009-010-017-018-250600-
NORTH CENTRAL WISCONSIN

CITY           SKY/WX    TMP DP  RH WIND       PRES   REMARKS
WOODRUFF       CLOUDY    62  53  73 CALM      29.98F
RHINELANDER    CLOUDY    61  57  87 CALM      30.01F
EAGLE RIVER    CLOUDY    59  55  84 CALM      29.99F
LAND O LAKES   MOCLDY    55  54  96 CALM      30.00F
PHILLIPS       PTCLDY    64  56  75 S7        29.97F
TOMAHAWK       MOCLDY    58  56  93 CALM      30.00F
MEDFORD        PTCLDY    60  58  91 S5        30.00F
MERRILL        MOCLDY    57  56  97 CALM      30.00F
$$

WIZ029-030-035-036-043>047-250600-
CENTRAL WISCONSIN

CITY           SKY/WX    TMP DP  RH WIND       PRES   REMARKS
WAUSAU         PTCLDY    63  57  81 E3        29.99F
MOSINEE        PTCLDY    61  59  94 CALM      30.02F
MARSHFIELD     PTCLDY    63  57  81 S3        30.01F
STEVENS POINT  MOCLDY    61  55  82 CALM      30.02S
WAUPACA        PTCLDY    66  57  71 SE6       30.03R
WAUTOMA        CLEAR     59  55  86 CALM      30.03R
WISC RAPIDS    CLEAR     63  55  75 S3        30.02S
CAMP DOUGLAS   CLEAR     57  57 100 CALM      30.02R FOG
$$

WIZ011>013-019>022-031-037>040-048>050-250600-
NORTHEAST WISCONSIN

CITY           SKY/WX    TMP DP  RH WIND       PRES   REMARKS
ANTIGO         MOCLDY    59  55  88 CALM      30.02F
STURGEON BAY   CLOUDY    61  43  51 S10       30.02F
GREEN BAY      CLOUDY    63  46  54 S6        30.03S
MANITOWOC      MOCLDY    62  44  51 SW7       30.04S
APPLETON       CLOUDY    63  46  55 S8        30.04R
CLINTONVILLE   MOCLDY    64  54  68 S6        30.02S
OSHKOSH        MOCLDY    62  48  60 S9        30.03R
$$

WIZ032>034-041-042-053>061-250600-
SOUTHWEST WISCONSIN

CITY           SKY/WX    TMP DP  RH WIND       PRES   REMARKS
LA CROSSE      CLEAR     69  61  75 S5        30.00R
SPARTA         CLEAR     59  56  91 CALM      30.03R
VIROQUA        FAIR      64  59  85 S5        30.04R
BOSCOBEL       CLEAR     64  59  83 SW3       30.03R
PRAIRIE DU CHI CLEAR     64  58  80 E3        30.02R
PLATTEVILLE    FAIR      63  57  82 S5        30.04R
$$

WIZ056-057-062-063-064-067-068-250600-
SOUTH CENTRAL WISCONSIN

CITY           SKY/WX    TMP DP  RH WIND       PRES   REMARKS
BARABOO/DELLS  CLEAR     61  55  80 S3        30.02S
LONE ROCK      CLEAR     66  58  75 CALM      30.03R
WATERTOWN      CLEAR     58  47  65 CALM      30.03F
MADISON        CLEAR     66  56  70 E7        30.02S
MIDDLETON      FAIR      60  57  90 CALM      30.03R
MONROE         CLEAR     61  55  82 S7        30.04R
JANESVILLE     CLEAR     63  48  59 SE8       30.03S
$$

WIZ051-052-058>065-066-070>072-250600-
SOUTHEAST WISCONSIN

CITY           SKY/WX    TMP DP  RH WIND       PRES   REMARKS
MILWAUKEE      PTCLDY    61  43  51 S3        30.05S
WAUKESHA       CLOUDY    59  43  55 S3        30.06S
MILWAUKEE/TIMM CLEAR     59  41  51 S3        30.06S
RACINE         CLEAR     60  50  69 S5        30.06S
BURLINGTON     CLEAR     53  48  85 CALM      30.05S
KENOSHA        CLEAR     58  51  78 S6        30.05F
FOND DU LAC    MOCLDY    59  46  62 S5        30.04R
SHEBOYGAN      PTCLDY    56  47  71 CALM      30.04S
WEST BEND      MOCLDY    57  43  58 CALM      30.04F
JUNEAU         PTCLDY    58  43  58 SE6       30.05F
$$

LSZ147-162-250600-
LAKE SUPERIOR

STATION/POSITION TIME  TEMP    WIND        PRES    WAVE
                       AIR SEA DIR/SP/G            HT/PER
                 (UTC) (F)     (DEG/KT/KT) (MB)    (FT/S)
$$

LMZ867-665-643>646-250600-
LAKE MICHIGAN

STATION/POSITION TIME  TEMP    WIND        PRES    WAVE
                       AIR SEA DIR/SP/G            HT/PER
                 (UTC) (F)     (DEG/KT/KT) (MB)    (FT/S)
$$

TC  - TEMPERATURE IN CELSIUS
VSB - VISIBILITY IN STATUTE MILES
WCI - WIND CHILL INDEX
HX  - HEAT INDEX




USA.gov is the U.S. government's official web portal to all federal, state and local government web resources and services.